Time,TemperatureF,DewpointF,PressureIn,WindDirection,WindDirectionDegrees,WindSpeedMPH,WindSpeedGustMPH,Humidity,HourlyPrecipIn,Conditions,Clouds,dailyrainin,SoftwareType,DateUTC
2013-02-02 00:00:00,11.8,8.2,30.13,SW,232,11.0,11.0,85,0.00,,,0.00,Wunderground v.1.15,2013-02-02 05:00:00,
2013-02-02 00:05:00,11.9,8.5,30.13,SW,227,11.0,11.0,86,0.00,,,0.00,Wunderground v.1.15,2013-02-02 05:05:00,
2013-02-02 00:10:00,12.1,9.0,30.13,WSW,237,11.0,13.0,87,0.00,,,0.00,Wunderground v.1.15,2013-02-02 05:10:00,
2013-02-02 00:15:00,11.8,8.4,30.13,WSW,240,11.0,13.0,86,0.00,,,0.00,Wunderground v.1.15,2013-02-02 05:15:00,
2013-02-02 00:20:00,12.0,8.1,30.13,SW,235,11.0,11.0,84,0.00,,,0.00,Wunderground v.1.15,2013-02-02 05:20:00,
2013-02-02 00:25:00,12.0,8.1,30.13,WSW,237,11.0,11.0,84,0.00,,,0.00,Wunderground v.1.15,2013-02-02 05:25:00,
2013-02-02 00:30:00,11.8,7.9,30.13,SW,232,11.0,11.0,84,0.00,,,0.00,Wunderground v.1.15,2013-02-02 05:30:00,
2013-02-02 00:35:00,11.7,7.5,30.13,SW,234,10.0,11.0,83,0.00,,,0.00,Wunderground v.1.15,2013-02-02 05:35:00,
2013-02-02 00:40:00,11.6,7.7,30.12,SW,223,9.0,11.0,84,0.00,,,0.00,Wunderground v.1.15,2013-02-02 05:40:00,
2013-02-02 00:45:00,11.8,8.2,30.12,WSW,237,9.0,16.0,85,0.00,,,0.00,Wunderground v.1.15,2013-02-02 05:45:00,
2013-02-02 00:50:00,11.5,7.3,30.12,WSW,242,10.0,10.0,83,0.00,,,0.00,Wunderground v.1.15,2013-02-02 05:50:00,
2013-02-02 01:00:00,11.5,8.4,30.12,WSW,242,8.0,9.0,87,0.00,,,0.00,Wunderground v.1.15,2013-02-02 06:00:00,
2013-02-02 01:05:00,11.5,8.6,30.12,SW,221,9.0,9.0,88,0.00,,,0.00,Wunderground v.1.15,2013-02-02 06:05:00,
2013-02-02 01:10:00,11.2,8.1,30.11,SW,228,8.0,8.0,87,0.00,,,0.00,Wunderground v.1.15,2013-02-02 06:10:00,
2013-02-02 01:15:00,11.4,8.5,30.11,SW,231,8.0,8.0,88,0.00,,,0.00,Wunderground v.1.15,2013-02-02 06:15:00,
2013-02-02 01:20:00,11.3,8.7,30.11,WSW,245,9.0,11.0,89,0.00,,,0.00,Wunderground v.1.15,2013-02-02 06:20:00,
2013-02-02 01:30:00,11.5,8.9,30.11,WSW,245,9.0,9.0,89,0.00,,,0.00,Wunderground v.1.15,2013-02-02 06:30:00,
2013-02-02 01:35:00,11.6,9.0,30.11,SW,231,9.0,9.0,89,0.00,,,0.00,Wunderground v.1.15,2013-02-02 06:35:00,
2013-02-02 01:40:00,11.5,8.9,30.10,WSW,242,10.0,14.0,89,0.00,,,0.00,Wunderground v.1.15,2013-02-02 06:40:00,
2013-02-02 01:45:00,11.4,8.5,30.10,WSW,241,10.0,14.0,88,0.00,,,0.00,Wunderground v.1.15,2013-02-02 06:45:00,
2013-02-02 01:50:00,11.4,8.3,30.10,SW,229,10.0,10.0,87,0.00,,,0.00,Wunderground v.1.15,2013-02-02 06:50:00,
2013-02-02 01:55:00,11.6,8.2,30.10,SW,236,10.0,10.0,86,0.00,,,0.00,Wunderground v.1.15,2013-02-02 06:55:00,
2013-02-02 02:05:00,11.6,6.9,30.10,WSW,238,10.0,12.0,81,0.00,,,0.00,Wunderground v.1.15,2013-02-02 07:05:00,
2013-02-02 02:10:00,11.6,6.6,30.10,WSW,237,10.0,12.0,80,0.00,,,0.00,Wunderground v.1.15,2013-02-02 07:10:00,
2013-02-02 02:15:00,11.8,6.0,30.10,SW,228,9.0,12.0,77,0.00,,,0.00,Wunderground v.1.15,2013-02-02 07:15:00,
2013-02-02 02:20:00,11.6,5.2,30.10,WSW,246,9.0,11.0,75,0.00,,,0.00,Wunderground v.1.15,2013-02-02 07:20:00,
2013-02-02 02:25:00,11.7,5.6,30.10,WSW,240,9.0,12.0,76,0.00,,,0.00,Wunderground v.1.15,2013-02-02 07:25:00,
2013-02-02 02:35:00,11.9,6.1,30.10,WSW,250,9.0,10.0,77,0.00,,,0.00,Wunderground v.1.15,2013-02-02 07:35:00,
2013-02-02 02:40:00,11.8,6.3,30.10,SW,233,9.0,9.0,78,0.00,,,0.00,Wunderground v.1.15,2013-02-02 07:40:00,
2013-02-02 02:45:00,11.8,5.1,30.10,SW,232,9.0,9.0,74,0.00,,,0.00,Wunderground v.1.15,2013-02-02 07:45:00,
2013-02-02 02:50:00,11.9,5.5,30.10,WSW,246,9.0,9.0,75,0.00,,,0.00,Wunderground v.1.15,2013-02-02 07:50:00,
2013-02-02 02:55:00,11.7,5.3,30.10,WSW,247,10.0,10.0,75,0.00,,,0.00,Wunderground v.1.15,2013-02-02 07:55:00,
2013-02-02 03:00:00,11.8,6.5,30.10,WSW,246,9.0,9.0,79,0.00,,,0.00,Wunderground v.1.15,2013-02-02 08:00:00,
2013-02-02 03:10:00,12.1,7.7,30.10,WSW,246,9.0,9.0,82,0.00,,,0.00,Wunderground v.1.15,2013-02-02 08:10:00,
2013-02-02 03:15:00,11.9,6.6,30.10,SW,235,9.0,9.0,79,0.00,,,0.00,Wunderground v.1.15,2013-02-02 08:15:00,
2013-02-02 03:20:00,12.0,7.0,30.10,WSW,239,9.0,12.0,80,0.00,,,0.00,Wunderground v.1.15,2013-02-02 08:20:00,
2013-02-02 03:25:00,11.9,6.9,30.10,WSW,242,9.0,12.0,80,0.00,,,0.00,Wunderground v.1.15,2013-02-02 08:25:00,
2013-02-02 03:30:00,11.8,6.5,30.10,WSW,242,9.0,9.0,79,0.00,,,0.00,Wunderground v.1.15,2013-02-02 08:30:00,
2013-02-02 03:35:00,11.9,6.9,30.10,WSW,246,9.0,9.0,80,0.00,,,0.00,Wunderground v.1.15,2013-02-02 08:35:00,
2013-02-02 03:45:00,11.7,7.3,30.09,WSW,246,9.0,10.0,82,0.00,,,0.00,Wunderground v.1.15,2013-02-02 08:45:00,
2013-02-02 03:50:00,11.6,6.1,30.09,WSW,245,8.0,8.0,78,0.00,,,0.00,Wunderground v.1.15,2013-02-02 08:50:00,
2013-02-02 03:55:00,11.7,7.5,30.09,SW,235,8.0,8.0,83,0.00,,,0.00,Wunderground v.1.15,2013-02-02 08:55:00,
2013-02-02 04:00:00,11.6,6.9,30.09,WSW,242,8.0,9.0,81,0.00,,,0.00,Wunderground v.1.15,2013-02-02 09:00:00,
2013-02-02 04:05:00,11.6,7.2,30.09,WSW,251,8.0,9.0,82,0.00,,,0.00,Wunderground v.1.15,2013-02-02 09:05:00,
2013-02-02 04:15:00,11.7,7.5,30.08,WSW,242,9.0,9.0,83,0.00,,,0.00,Wunderground v.1.15,2013-02-02 09:15:00,
2013-02-02 04:20:00,11.6,8.0,30.08,WSW,246,10.0,12.0,85,0.00,,,0.00,Wunderground v.1.15,2013-02-02 09:20:00,
2013-02-02 04:25:00,11.6,8.0,30.08,WSW,248,10.0,12.0,85,0.00,,,0.00,Wunderground v.1.15,2013-02-02 09:25:00,
2013-02-02 04:30:00,11.4,7.5,30.09,WSW,248,9.0,9.0,84,0.00,,,0.00,Wunderground v.1.15,2013-02-02 09:30:00,
2013-02-02 04:35:00,11.4,7.8,30.09,WSW,249,9.0,9.0,85,0.00,,,0.00,Wunderground v.1.15,2013-02-02 09:35:00,
2013-02-02 04:40:00,11.4,8.0,30.09,WSW,246,9.0,9.0,86,0.00,,,0.00,Wunderground v.1.15,2013-02-02 09:40:00,
2013-02-02 04:50:00,11.6,8.5,30.09,WSW,246,8.0,9.0,87,0.00,,,0.00,Wunderground v.1.15,2013-02-02 09:50:00,
2013-02-02 04:55:00,11.5,8.1,30.08,WSW,245,9.0,9.0,86,0.00,,,0.00,Wunderground v.1.15,2013-02-02 09:55:00,
2013-02-02 05:00:00,11.4,8.0,30.09,WSW,247,9.0,9.0,86,0.00,,,0.00,Wunderground v.1.15,2013-02-02 10:00:00,
2013-02-02 05:05:00,11.2,7.8,30.08,WSW,251,9.0,9.0,86,0.00,,,0.00,Wunderground v.1.15,2013-02-02 10:05:00,
2013-02-02 05:10:00,11.4,8.3,30.08,WSW,240,9.0,9.0,87,0.00,,,0.00,Wunderground v.1.15,2013-02-02 10:10:00,
2013-02-02 05:20:00,11.3,8.2,30.08,WSW,248,8.0,8.0,87,0.00,,,0.00,Wunderground v.1.15,2013-02-02 10:20:00,
2013-02-02 05:25:00,11.2,7.8,30.08,WSW,248,7.0,8.0,86,0.00,,,0.00,Wunderground v.1.15,2013-02-02 10:25:00,
2013-02-02 05:30:00,11.3,7.9,30.08,WSW,255,7.0,7.0,86,0.00,,,0.00,Wunderground v.1.15,2013-02-02 10:30:00,
2013-02-02 05:35:00,11.2,7.3,30.08,WSW,252,8.0,8.0,84,0.00,,,0.00,Wunderground v.1.15,2013-02-02 10:35:00,
2013-02-02 05:40:00,11.2,7.0,30.08,WSW,252,8.0,8.0,83,0.00,,,0.00,Wunderground v.1.15,2013-02-02 10:40:00,
2013-02-02 05:45:00,11.2,6.2,30.08,WSW,241,7.0,8.0,80,0.00,,,0.00,Wunderground v.1.15,2013-02-02 10:45:00,
2013-02-02 05:55:00,11.5,7.3,30.08,WSW,245,7.0,7.0,83,0.00,,,0.00,Wunderground v.1.15,2013-02-02 10:55:00,
2013-02-02 06:05:00,11.4,7.0,30.08,WSW,248,7.0,8.0,82,0.00,,,0.00,Wunderground v.1.15,2013-02-02 11:05:00,
2013-02-02 06:10:00,11.4,7.0,30.08,WSW,250,8.0,8.0,82,0.00,,,0.00,Wunderground v.1.15,2013-02-02 11:10:00,
2013-02-02 06:15:00,11.4,7.0,30.07,West,265,8.0,8.0,82,0.00,,,0.00,Wunderground v.1.15,2013-02-02 11:15:00,
2013-02-02 06:25:00,11.5,6.8,30.07,WSW,246,7.0,7.0,81,0.00,,,0.00,Wunderground v.1.15,2013-02-02 11:25:00,
2013-02-02 06:30:00,11.6,7.2,30.07,WSW,244,7.0,7.0,82,0.00,,,0.00,Wunderground v.1.15,2013-02-02 11:30:00,
2013-02-02 06:35:00,11.7,6.4,30.07,WSW,246,7.0,7.0,79,0.00,,,0.00,Wunderground v.1.15,2013-02-02 11:35:00,
2013-02-02 06:40:00,11.7,6.7,30.07,WSW,248,7.0,7.0,80,0.00,,,0.00,Wunderground v.1.15,2013-02-02 11:40:00,
2013-02-02 06:45:00,11.8,6.8,30.07,WSW,246,6.0,7.0,80,0.00,,,0.00,Wunderground v.1.15,2013-02-02 11:45:00,
2013-02-02 06:50:00,11.8,6.3,30.07,WSW,242,6.0,7.0,78,0.00,,,0.00,Wunderground v.1.15,2013-02-02 11:50:00,
2013-02-02 07:00:00,11.8,6.3,30.08,West,266,7.0,7.0,78,0.00,,,0.00,Wunderground v.1.15,2013-02-02 12:00:00,
2013-02-02 07:05:00,11.9,6.9,30.08,WSW,257,7.0,8.0,80,0.00,,,0.00,Wunderground v.1.15,2013-02-02 12:05:00,
2013-02-02 07:10:00,11.9,7.5,30.08,WSW,248,8.0,8.0,82,0.00,,,0.00,Wunderground v.1.15,2013-02-02 12:10:00,
2013-02-02 07:15:00,11.9,7.7,30.08,West,269,7.0,8.0,83,0.00,,,0.00,Wunderground v.1.15,2013-02-02 12:15:00,
2013-02-02 07:20:00,11.9,7.5,30.08,West,259,7.0,7.0,82,0.00,,,0.00,Wunderground v.1.15,2013-02-02 12:20:00,
2013-02-02 07:30:00,12.1,7.1,30.08,West,272,6.0,6.0,80,0.00,,,0.00,Wunderground v.1.15,2013-02-02 12:30:00,
2013-02-02 07:35:00,12.0,6.5,30.08,West,267,5.0,6.0,78,0.00,,,0.00,Wunderground v.1.15,2013-02-02 12:35:00,
2013-02-02 07:40:00,12.2,6.9,30.08,West,261,5.0,6.0,79,0.00,,,0.00,Wunderground v.1.15,2013-02-02 12:40:00,
2013-02-02 07:45:00,12.2,6.7,30.08,West,261,6.0,6.0,78,0.00,,,0.00,Wunderground v.1.15,2013-02-02 12:45:00,
2013-02-02 07:50:00,12.2,6.9,30.08,West,275,6.0,6.0,79,0.00,,,0.00,Wunderground v.1.15,2013-02-02 12:50:00,
2013-02-02 08:00:00,12.2,6.1,30.08,West,269,5.0,5.0,76,0.00,,,0.00,Wunderground v.1.15,2013-02-02 13:00:00,
2013-02-02 08:05:00,12.1,6.0,30.08,WNW,295,4.0,6.0,76,0.00,,,0.00,Wunderground v.1.15,2013-02-02 13:05:00,
2013-02-02 08:10:00,12.1,6.3,30.08,West,272,3.0,3.0,77,0.00,,,0.00,Wunderground v.1.15,2013-02-02 13:10:00,
2013-02-02 08:15:00,12.1,6.3,30.08,West,273,2.0,6.0,77,0.00,,,0.00,Wunderground v.1.15,2013-02-02 13:15:00,
2013-02-02 08:20:00,12.0,6.5,30.08,West,273,0.0,6.0,78,0.00,,,0.00,Wunderground v.1.15,2013-02-02 13:20:00,
2013-02-02 08:25:00,11.8,6.3,30.08,West,274,0.0,6.0,78,0.00,,,0.00,Wunderground v.1.15,2013-02-02 13:25:00,
2013-02-02 12:25:00,15.7,8.3,30.07,NNW,337,2.0,2.0,72,0.00,,,0.00,Wunderground v.1.15,2013-02-02 17:25:00,
2013-02-02 12:35:00,16.8,9.0,30.07,West,271,1.0,6.0,71,0.00,,,0.00,Wunderground v.1.15,2013-02-02 17:35:00,
2013-02-02 12:40:00,17.5,9.4,30.06,ENE,67,1.0,6.0,70,0.00,,,0.00,Wunderground v.1.15,2013-02-02 17:40:00,
2013-02-02 12:45:00,17.6,9.2,30.06,NW,320,2.0,6.0,69,0.00,,,0.00,Wunderground v.1.15,2013-02-02 17:45:00,
2013-02-02 12:50:00,17.2,8.8,30.06,West,271,2.0,6.0,69,0.00,,,0.00,Wunderground v.1.15,2013-02-02 17:50:00,
2013-02-02 12:55:00,16.8,8.4,30.07,NW,323,2.0,6.0,69,0.00,,,0.00,Wunderground v.1.15,2013-02-02 17:55:00,
2013-02-02 13:05:00,16.1,8.0,30.07,NNW,343,1.0,6.0,70,0.00,,,0.00,Wunderground v.1.15,2013-02-02 18:05:00,
2013-02-02 21:05:00,12.5,6.4,30.08,NE,40,0.0,6.0,76,0.00,,,0.00,Wunderground v.1.15,2013-02-03 02:05:00,
2013-02-02 21:15:00,12.6,6.5,30.08,NE,40,0.0,6.0,76,0.00,,,0.00,Wunderground v.1.15,2013-02-03 02:15:00,
2013-02-02 21:20:00,12.5,6.7,30.07,NE,40,0.0,6.0,77,0.00,,,0.00,Wunderground v.1.15,2013-02-03 02:20:00,
2013-02-02 21:25:00,12.5,6.9,30.07,NE,40,0.0,6.0,78,0.00,,,0.00,Wunderground v.1.15,2013-02-03 02:25:00,
2013-02-02 21:30:00,12.5,6.7,30.07,NE,40,0.0,6.0,77,0.00,,,0.00,Wunderground v.1.15,2013-02-03 02:30:00,
2013-02-02 21:35:00,12.7,6.9,30.07,East,91,0.0,6.0,77,0.00,,,0.00,Wunderground v.1.15,2013-02-03 02:35:00,
2013-02-02 21:45:00,12.8,6.9,30.07,East,90,0.0,6.0,77,0.00,,,0.00,Wunderground v.1.15,2013-02-03 02:45:00,
2013-02-02 21:50:00,13.0,6.9,30.07,East,90,0.0,6.0,76,0.00,,,0.00,Wunderground v.1.15,2013-02-03 02:50:00,
2013-02-02 21:55:00,13.2,7.0,30.07,East,91,0.0,6.0,76,0.00,,,0.00,Wunderground v.1.15,2013-02-03 02:55:00,
2013-02-02 22:00:00,13.0,6.9,30.07,East,91,0.0,6.0,76,0.00,,,0.00,Wunderground v.1.15,2013-02-03 03:00:00,
2013-02-02 22:05:00,12.8,6.9,30.07,East,91,0.0,6.0,77,0.00,,,0.00,Wunderground v.1.15,2013-02-03 03:05:00,
2013-02-02 22:15:00,12.7,7.1,30.07,East,91,0.0,6.0,78,0.00,,,0.00,Wunderground v.1.15,2013-02-03 03:15:00,
2013-02-02 22:20:00,13.0,7.1,30.07,SE,132,0.0,6.0,77,0.00,,,0.00,Wunderground v.1.15,2013-02-03 03:20:00,
2013-02-02 22:25:00,13.1,7.5,30.07,SE,132,0.0,6.0,78,0.00,,,0.00,Wunderground v.1.15,2013-02-03 03:25:00,
2013-02-02 22:30:00,13.2,7.3,30.06,SE,132,0.0,6.0,77,0.00,,,0.00,Wunderground v.1.15,2013-02-03 03:30:00,
2013-02-02 22:35:00,13.2,7.6,30.06,SE,133,0.0,6.0,78,0.00,,,0.00,Wunderground v.1.15,2013-02-03 03:35:00,
2013-02-02 22:40:00,13.2,7.6,30.06,SE,133,0.0,6.0,78,0.00,,,0.00,Wunderground v.1.15,2013-02-03 03:40:00,
2013-02-02 22:50:00,13.1,7.2,30.06,SE,126,0.0,6.0,77,0.00,,,0.00,Wunderground v.1.15,2013-02-03 03:50:00,
2013-02-02 22:55:00,13.1,7.2,30.06,SE,128,0.0,6.0,77,0.00,,,0.00,Wunderground v.1.15,2013-02-03 03:55:00,
2013-02-02 23:00:00,13.2,7.3,30.06,SE,128,0.0,6.0,77,0.00,,,0.00,Wunderground v.1.15,2013-02-03 04:00:00,
2013-02-02 23:05:00,13.2,7.0,30.06,SE,128,0.0,6.0,76,0.00,,,0.00,Wunderground v.1.15,2013-02-03 04:05:00,
2013-02-02 23:10:00,13.4,7.0,30.05,ESE,113,0.0,6.0,75,0.00,,,0.00,Wunderground v.1.15,2013-02-03 04:10:00,
2013-02-02 23:15:00,13.5,7.0,30.05,ESE,111,0.0,6.0,75,0.00,,,0.00,Wunderground v.1.15,2013-02-03 04:15:00,
2013-02-02 23:25:00,13.6,7.1,30.05,East,99,0.0,6.0,75,0.00,,,0.00,Wunderground v.1.15,2013-02-03 04:25:00,
2013-02-02 23:30:00,13.6,6.8,30.05,SE,130,1.0,1.0,74,0.00,,,0.00,Wunderground v.1.15,2013-02-03 04:30:00,
2013-02-02 23:35:00,13.7,6.9,30.04,ESE,117,1.0,6.0,74,0.00,,,0.00,Wunderground v.1.15,2013-02-03 04:35:00,
2013-02-02 23:40:00,13.7,7.2,30.04,SE,125,1.0,6.0,75,0.00,,,0.00,Wunderground v.1.15,2013-02-03 04:40:00,
2013-02-02 23:45:00,13.7,7.2,30.04,East,87,1.0,6.0,75,0.00,,,0.00,Wunderground v.1.15,2013-02-03 04:45:00,
2013-02-02 23:55:00,13.7,6.9,30.03,ESE,111,1.0,6.0,74,0.00,,,0.00,Wunderground v.1.15,2013-02-03 04:55:00,